Flag for France Weather past 2 weeks in Lille, France

45 °F

Drizzle. Fog.

Feels Like: 38 °F
Forecast: 47 / 53 °F
Wind: 15 mph from Southwest

Location: Lille Airport

Current Time: Nov 28, 2015 at 2:14:03 AM

Latest Report: Nov 28, 2015 at 1:00 AM

Visibility: 3 mi

Pressure: 29.74 "Hg

Humidity: 93%

Dew point: 43 °F

Location of LilleLocation

Historic Weather in Lille — Graph


Lille temperature yesterday

Maximum temperature yesterday: 43 °F (at 12:00 PM)
Minimum temperature yesterday: 34 °F (at 2:30 AM)
Average temperature yesterday: 40 °F

Past Weeks' High & Low Weather Summary

High61 °F (Nov 17, 3:30 PM)100% (Nov 19, 6:00 PM)30.36 "Hg (Nov 19, 6:00 PM)
Low28 °F (Nov 23, 6:00 AM)59% (Nov 13, 2:30 PM)29.42 "Hg (Nov 21, 1:00 PM)
Average47 °F87%29.95 "Hg
* Reported Midnight between Nov 12 and Nov 13 — Nov 28 12:30 AM, Lille, Weather by CustomWeather, © 2015

Note: Actual official high and low records may vary slightly from our data, if they occured in-between our weather recording intervals... More about our weather records


Lille weather history for previous 24 hours

Time TempWeatherWind HumidityBarometerVisibility
12:30 AM
Sat, Nov 28
45 °FLow clouds.17 mph93%29.74 "Hg4 mi
12:00 AM43 °FDrizzle. Fog.16 mph93%29.71 "Hg3 mi
11:30 PM
Fri, Nov 27
43 °FLow clouds.17 mph93%29.74 "Hg5 mi
11:00 PM43 °FLow clouds.17 mph93%29.74 "Hg5 mi
10:30 PM41 °FLow clouds.17 mph93%29.77 "Hg4 mi
10:00 PM41 °FLow clouds.18 mph93%29.77 "Hg4 mi
9:30 PM41 °FLow clouds.17 mph93%29.77 "Hg5 mi
9:00 PM41 °FLow clouds.15 mph93%29.80 "Hg4 mi
8:30 PM41 °FDrizzle. Low clouds.15 mph93%29.80 "Hg4 mi
8:00 PM41 °FLow clouds.15 mph93%29.83 "Hg4 mi
7:30 PM41 °FDrizzle. Mostly cloudy.14 mph93%29.83 "Hg4 mi
7:00 PM43 °FMostly cloudy.14 mph87%29.83 "Hg5 mi
6:30 PM43 °FOvercast.14 mph87%29.86 "HgN/A
6:00 PM43 °FOvercast.13 mph87%29.86 "HgN/A
5:30 PM43 °FMostly cloudy.13 mph87%29.86 "HgN/A
5:00 PM43 °FOvercast.14 mph87%29.89 "HgN/A
4:30 PM43 °FOvercast.15 mph87%29.89 "HgN/A
4:00 PM43 °FMostly cloudy.15 mph87%29.89 "HgN/A
3:30 PM43 °FMostly cloudy.14 mph87%29.92 "HgN/A
3:00 PM43 °FMostly cloudy.12 mph87%29.92 "HgN/A
2:30 PM43 °FLow clouds.13 mph87%29.92 "HgN/A
2:00 PM43 °FMore clouds than sun.9 mph87%29.95 "HgN/A
1:30 PM43 °FMore clouds than sun.12 mph87%29.95 "HgN/A
1:00 PM43 °FCloudy.14 mph87%29.98 "HgN/A
12:30 PM43 °FBroken clouds.12 mph87%29.98 "HgN/A
12:00 PM43 °FMostly cloudy.12 mph87%30.01 "HgN/A
11:30 AM41 °FMostly cloudy.10 mph93%30.01 "HgN/A
11:00 AM41 °FMostly cloudy.12 mph93%30.01 "HgN/A
10:30 AM41 °FOvercast.8 mph93%30.04 "HgN/A
10:00 AM39 °FOvercast.7 mph100%30.04 "Hg6 mi
9:30 AM39 °FMore clouds than sun.8 mph93%30.04 "Hg4 mi
9:00 AM37 °FFog.7 mph100%30.04 "Hg3 mi
7:30 AM37 °FLow clouds.8 mph100%30.07 "Hg4 mi
7:00 AM37 °FOvercast.8 mph93%30.07 "Hg4 mi
6:30 AM37 °FFog.8 mph93%30.07 "Hg3 mi
6:00 AM36 °FFog.7 mph100%30.07 "Hg2 mi
5:30 AM36 °FFog.7 mph100%30.07 "Hg2 mi
5:00 AM34 °FFog.7 mph100%30.09 "Hg2 mi
4:00 AM34 °FFog.6 mph100%30.09 "Hg2 mi
3:30 AM34 °FFog.3 mph100%30.12 "Hg2 mi
3:00 AM34 °FFog.6 mph100%30.12 "Hg2 mi
2:30 AM34 °FFog.3 mph100%30.12 "Hg3 mi
2:00 AM36 °FLight fog.1 mph100%30.12 "Hg6 mi
Weather by CustomWeather, © 2015

See weather overviewHow to use our weather pages